ARSAT 2

Last updated on Tue Jul 01 2025 00:02:46 GMT+0000 (Coordinated Universal Time)

1 40941U 15054B 25181.55180779 -.00000225 00000+0 00000+0 0 9990 2 40941 0.0128 347.8009 0002010 100.3508 308.3328 1.00272406 35784
UTC large
Height (km)
Speed (km/s)
/
Latitude / Longitude
Inclination (degrees)
Orbital Period (minutes)
Azimuth
Elevation
Range (km)
Doppler Factor

Next 0 passes for location: London (51.5072 / 0.1276)

Sorry there are no passes over London.